International Skating Union - Official Site

ISU European Speed Skating Championships 2015
January 10-11, 2015

Draw | Lap Times | Index | Classification

Referee: Debora  SIGHEL  (ITA)
Starter: Roland  STEENBECK  (GER)
StartTime: EndTime: Air Temp: Ice Temp: Humidity:
17:40 18:55 12.7℃ -5.1℃ 34.8%
Result 3000m Ladies
Rankings as of Jan 10 2015 8:42PM
Rank: No.: Name: Nation: Time: Behind: Points:
1 3 Martina  Sábliková CZE CZE 4:05.23200m - 20.45 - (20.4)
600m - 51.84 - (31.3)
1000m - 1:23.62 - (31.7)
1400m - 1:55.45 - (31.8)
1800m - 2:27.40 - (31.9)
2200m - 2:59.70 - (32.3)
2600m - 3:32.23 - (32.5)
3000m - 4:05.23 - (33.0)
40.871
2 12 Ireen  Wüst NED NED 4:07.49200m - 19.96 - (19.9)
600m - 51.19 - (31.2)
1000m - 1:23.40 - (32.2)
1400m - 1:56.00 - (32.6)
1800m - 2:28.23 - (32.2)
2200m - 3:00.74 - (32.5)
2600m - 3:34.17 - (33.4)
3000m - 4:07.49 - (33.3)
2.26 41.248
3 9 Linda  de Vries NED NED 4:07.50200m - 19.69 - (19.6)
600m - 50.90 - (31.2)
1000m - 1:22.62 - (31.7)
1400m - 1:54.59 - (31.9)
1800m - 2:26.76 - (32.1)
2200m - 2:59.46 - (32.7)
2600m - 3:33.20 - (33.7)
3000m - 4:07.50 - (34.3)
2.27 41.250
4 18 Olga  Graf RUS RUS 4:08.93200m - 21.20 - (21.2)
600m - 52.81 - (31.6)
1000m - 1:24.67 - (31.8)
1400m - 1:57.12 - (32.4)
1800m - 2:29.70 - (32.5)
2200m - 3:02.41 - (32.7)
2600m - 3:35.48 - (33.0)
3000m - 4:08.93 - (33.4)
3.70 41.488
5 11 Jorien  Voorhuis NED NED 4:10.94200m - 20.23 - (20.2)
600m - 52.47 - (32.2)
1000m - 1:25.54 - (33.0)
1400m - 1:58.49 - (32.9)
1800m - 2:31.32 - (32.8)
2200m - 3:04.31 - (32.9)
2600m - 3:37.42 - (33.1)
3000m - 4:10.94 - (33.5)
5.71 41.823
6 14 Ida  Njåtun NOR NOR 4:11.33200m - 20.15 - (20.1)
600m - 51.70 - (31.5)
1000m - 1:23.85 - (32.1)
1400m - 1:56.45 - (32.6)
1800m - 2:29.20 - (32.7)
2200m - 3:02.42 - (33.2)
2600m - 3:36.46 - (34.0)
3000m - 4:11.33 - (34.8)
6.10 41.888
7 20 Yuliya  Skokova RUS RUS 4:13.02200m - 20.84 - (20.8)
600m - 53.11 - (32.2)
1000m - 1:25.77 - (32.6)
1400m - 1:58.36 - (32.5)
1800m - 2:31.15 - (32.7)
2200m - 3:04.33 - (33.1)
2600m - 3:38.28 - (33.9)
3000m - 4:13.02 - (34.7)
7.79 42.170
8 21 Natalya  Voronina RUS RUS 4:13.60200m - 20.76 - (20.7)
600m - 53.66 - (32.9)
1000m - 1:26.09 - (32.4)
1400m - 1:59.38 - (33.2)
1800m - 2:32.36 - (32.9)
2200m - 3:06.00 - (33.6)
2600m - 3:39.75 - (33.7)
3000m - 4:13.60 - (33.8)
8.37 42.266
9 17 Katarzyna  Wozniak POL POL 4:16.43200m - 20.76 - (20.7)
600m - 52.99 - (32.2)
1000m - 1:25.71 - (32.7)
1400m - 1:58.55 - (32.8)
1800m - 2:31.84 - (33.2)
2200m - 3:05.74 - (33.9)
2600m - 3:40.51 - (34.7)
3000m - 4:16.43 - (35.9)
11.20 42.738
10 1 Jelena  Peeters BEL BEL 4:16.96200m - 20.60 - (20.6)
600m - 53.62 - (33.0)
1000m - 1:27.56 - (33.9)
1400m - 2:01.33 - (33.7)
1800m - 2:35.30 - (33.9)
2200m - 3:09.55 - (34.2)
2600m - 3:43.17 - (33.6)
3000m - 4:16.96 - (33.7)
11.73 42.826
11 7 Isabell  Ost GER GER 4:18.41200m - 20.74 - (20.7)
600m - 53.37 - (32.6)
1000m - 1:26.83 - (33.4)
1400m - 2:00.42 - (33.5)
1800m - 2:34.50 - (34.0)
2200m - 3:08.97 - (34.4)
2600m - 3:43.95 - (34.9)
3000m - 4:18.41 - (34.4)
13.18 43.068
12 2 Marina  Zueva BLR BLR 4:19.21200m - 20.42 - (20.4)
600m - 53.03 - (32.6)
1000m - 1:26.33 - (33.3)
1400m - 2:00.60 - (34.2)
1800m - 2:35.10 - (34.5)
2200m - 3:10.01 - (34.9)
2600m - 3:44.80 - (34.7)
3000m - 4:19.21 - (34.4)
13.98 43.201
13 6 Jennifer  Bay GER GER 4:19.46200m - 20.90 - (20.9)
600m - 53.38 - (32.4)
1000m - 1:26.54 - (33.1)
1400m - 2:00.59 - (34.0)
1800m - 2:34.94 - (34.3)
2200m - 3:09.65 - (34.7)
2600m - 3:44.66 - (35.0)
3000m - 4:19.46 - (34.8)
14.23 43.243
14 16 Aleksandra  Goss POL POL 4:19.92200m - 20.83 - (20.8)
600m - 53.35 - (32.5)
1000m - 1:26.85 - (33.5)
1400m - 2:00.46 - (33.6)
1800m - 2:34.84 - (34.3)
2200m - 3:09.64 - (34.8)
2600m - 3:44.91 - (35.2)
3000m - 4:19.92 - (35.0)
14.69 43.320
15 4 Nikola  Zdráhalova CZE CZE 4:21.37200m - 20.39 - (20.3)
600m - 52.73 - (32.3)
1000m - 1:26.13 - (33.4)
1400m - 2:00.25 - (34.1)
1800m - 2:35.16 - (34.9)
2200m - 3:10.18 - (35.0)
2600m - 3:45.68 - (35.5)
3000m - 4:21.37 - (35.6)
16.14 43.561
16 5 Saskia  Alusalu EST EST 4:22.66200m - 21.06 - (21.0)
600m - 53.63 - (32.5)
1000m - 1:26.74 - (33.1)
1400m - 2:00.44 - (33.7)
1800m - 2:34.78 - (34.3)
2200m - 3:09.98 - (35.2)
2600m - 3:45.72 - (35.7)
3000m - 4:22.66 - (36.9)
17.43 43.776
17 13 Hege  Bøkko NOR NOR 4:29.88200m - 21.00 - (21.0)
600m - 54.14 - (33.1)
1000m - 1:28.27 - (34.1)
1400m - 2:03.07 - (34.8)
1800m - 2:38.31 - (35.2)
2200m - 3:14.64 - (36.3)
2600m - 3:51.64 - (37.0)
3000m - 4:29.88 - (38.2)
24.65 44.980
18 22 Eva  Lagrange SWE SWE 4:31.95200m - 21.13 - (21.1)
600m - 54.76 - (33.6)
1000m - 1:29.88 - (35.1)
1400m - 2:04.86 - (34.9)
1800m - 2:40.12 - (35.2)
2200m - 3:16.25 - (36.1)
2600m - 3:53.85 - (37.6)
3000m - 4:31.95 - (38.1)
26.72 45.325